Oklahoma City Wiley Post, OK

8:27 AM CDT on May 23, 2018 (GMT -0500)
Wiley Post

Weather History for KPWA - February, 2014

Change the Weather History Date:

Sunday, February 9, 2014

  Actual Average Record
Temperature  
Mean Temperature 29 °F -  
Max Temperature 33 °F 46 °F 75 °F (2000)
Min Temperature 25 °F 22 °F 0 °F (1979)
Degree Days  
Heating Degree Days 36    
Moisture  
Dew Point 26 °F    
Average Humidity 85    
Maximum Humidity 93    
Minimum Humidity 79    
Precipitation  
Precipitation 0.00 in - - ()
Sea Level Pressure  
Sea Level Pressure 30.17 in    
Wind  
Wind Speed 10 mph (NE)    
Max Wind Speed 17 mph    
Max Gust Speed -    
Visibility 2 miles    
Events      
Averages and records for this station are not official NWS values.
T = Trace of Precipitation, MM = Missing Value Source: NWS Daily Summary

Daily Weather History Graph

Daily Weather History Graph

Search for Another Location

Airport or City:

Astronomy

Feb. 09, 2014 Rise Set
Actual Time 7:23 AM CST 6:06 PM CST
Civil Twilight 6:57 AM CST 6:33 PM CST
Nautical Twilight 6:26 AM CST 7:03 PM CST
Astronomical Twilight 5:57 AM CST 7:32 PM CST
Moon 1:51 PM CST (2/9) 3:26 AM CST (2/9)
Length of Visible Light 11h 36m
Length of Day
10h 43m
Waxing Gibbous, 77% of the Moon is Illuminated
Feb 9
Waxing Gibbous
Feb 14
Full
Feb 22
Last Quarter
Mar 1
New
Mar 8
First Quarter

Hourly Weather History & Observations

Time (CST) Temp. Windchill Dew Point Humidity Pressure Visibility Wind Dir Wind Speed Gust Speed Precip Events Conditions
12:45 AM 33.8 °F 28.6 °F 28.4 °F 81% 30.09 in 2.5 mi ENE 5.8 mph - N/A   Haze
12:53 AM 33.1 °F 27.7 °F 28.0 °F 82% 30.12 in 2.5 mi ENE 5.8 mph - N/A   Haze
1:04 AM 33.8 °F 28.6 °F 28.4 °F 81% 30.08 in 3.0 mi ENE 5.8 mph - N/A   Haze
1:28 AM 33.8 °F 28.6 °F 28.4 °F 81% 30.09 in 2.5 mi ENE 5.8 mph - N/A   Haze
1:53 AM 33.1 °F 28.7 °F 28.0 °F 82% 30.13 in 2.5 mi ENE 4.6 mph - N/A   Haze
2:42 AM 32.0 °F 26.4 °F 28.4 °F 87% 30.09 in 1.8 mi ENE 5.8 mph - N/A   Overcast
2:53 AM 32.0 °F 25.6 °F 28.0 °F 85% 30.13 in 1.5 mi NE 6.9 mph - N/A   Overcast
3:53 AM 32.0 °F 23.0 °F 28.0 °F 85% 30.13 in 1.2 mi NE 11.5 mph - N/A   Overcast
4:53 AM 30.9 °F 21.2 °F 28.0 °F 89% 30.13 in 1.5 mi NE 12.7 mph - N/A   Overcast
5:09 AM 30.2 °F 19.8 °F 26.6 °F 86% 30.10 in 2.0 mi NE 13.8 mph - N/A   Overcast
5:53 AM 30.9 °F 19.8 °F 27.0 °F 85% 30.09 in 1.8 mi ENE 16.1 mph - N/A   Overcast
6:10 AM 30.2 °F 19.3 °F 26.6 °F 86% 30.07 in 1.8 mi NE 15.0 mph - N/A   Overcast
6:53 AM 30.9 °F 22.2 °F 28.0 °F 89% 30.14 in 1.2 mi ENE 10.4 mph - N/A   Overcast
7:53 AM 30.9 °F 22.8 °F 28.0 °F 89% 30.18 in 0.8 mi NE 9.2 mph - N/A   Overcast
8:53 AM 30.9 °F 22.2 °F 28.0 °F 89% 30.19 in 1.0 mi NE 10.4 mph - N/A   Overcast
9:53 AM 30.9 °F 22.2 °F 28.0 °F 89% 30.19 in 1.0 mi ENE 10.4 mph - N/A   Overcast
10:53 AM 30.9 °F 21.7 °F 28.0 °F 89% 30.20 in 1.5 mi NNE 11.5 mph - N/A   Overcast
11:53 AM 30.9 °F 22.2 °F 27.0 °F 85% 30.19 in 1.5 mi NE 10.4 mph - N/A   Overcast
12:00 PM 30.2 °F 21.3 °F 26.6 °F 86% 30.16 in 1.5 mi NE 10.4 mph - N/A   Overcast
12:53 PM 30.0 °F 20.0 °F 27.0 °F 88% 30.20 in 1.2 mi NNE 12.7 mph - N/A   Overcast
1:53 PM 30.9 °F 23.5 °F 25.0 °F 79% 30.20 in 5.0 mi North 8.1 mph - N/A   Haze
2:00 PM 30.2 °F 22.6 °F 24.8 °F 80% 30.16 in 5.0 mi North 8.1 mph - N/A   Haze
2:53 PM 30.9 °F 21.2 °F 25.0 °F 79% 30.17 in 5.0 mi NNE 12.7 mph - N/A   Haze
3:53 PM 30.9 °F 21.2 °F 25.0 °F 79% 30.19 in 4.0 mi North 12.7 mph - N/A   Haze
4:53 PM 30.0 °F 20.0 °F 25.0 °F 82% 30.19 in 4.0 mi North 12.7 mph - N/A   Haze
5:23 PM 30.2 °F 20.2 °F 24.8 °F 80% 30.16 in 3.0 mi NNE 12.7 mph - N/A   Haze
5:53 PM 28.9 °F 18.2 °F 25.0 °F 85% 30.21 in 3.0 mi North 13.8 mph - N/A   Overcast
6:01 PM 28.4 °F 17.0 °F 24.8 °F 86% 30.18 in 2.0 mi North 15.0 mph - N/A   Overcast
6:53 PM 27.0 °F 14.3 °F 24.1 °F 89% 30.22 in 1.8 mi North 17.3 mph - N/A   Overcast
7:53 PM 27.0 °F 15.2 °F 24.1 °F 89% 30.24 in 1.2 mi NNE 15.0 mph - N/A   Overcast
8:27 PM 26.6 °F 15.2 °F 24.8 °F 93% 30.20 in 1.5 mi NNE 13.8 mph - N/A   Overcast
8:53 PM 27.0 °F 15.2 °F 23.0 °F 85% 30.25 in 1.8 mi NNE 15.0 mph - N/A   Overcast
9:04 PM 26.6 °F 13.8 °F 23.0 °F 86% 30.22 in 1.8 mi NNE 17.3 mph - N/A   Overcast
9:53 PM 26.1 °F 14.5 °F 21.9 °F 84% 30.27 in 2.0 mi NNE 13.8 mph - N/A   Overcast
10:53 PM 25.0 °F 13.1 °F 21.0 °F 85% 30.29 in 2.0 mi NNE 13.8 mph - N/A   Overcast
11:53 PM 25.0 °F 13.6 °F 19.9 °F 81% 30.30 in 2.5 mi NNE 12.7 mph - N/A   Haze